Back to catalog

EOS-8

AliveScienceVLEO
NORAD 60454·PAYLOAD·🇮🇳 India

Launched Aug 16, 2024 from Satish Dhawan Space Centre

Loading…

Next Passes (next 24 hours)

TLE

FreshSource: Space-Track

Epoch: Sep 14, 2026, 06:38 UTC

1 60454U 24147A   26257.27692144  .00034238  00000-0  50061-3 0  9999
2 60454  37.3806 209.8602 0006662 272.0595  87.9409 15.54687506116928

Track EOS-8 in real time with AllMySat

Download on the App Store